Weather History for Rutland, VT

Change the Weather History Date:

Tuesday, January 21, 2014

  Actual Average Record
Temperature  
Mean Temperature -2 °F -  
Max Temperature 3 °F - 59 °F (2006)
Min Temperature -8 °F - -13 °F (1961)
Degree Days  
Heating Degree Days 67    
Month to date heating degree days 922  
Since 1 July heating degree days 3854  
Cooling Degree Days 0    
Month to date cooling degree days 0  
Year to date cooling degree days 0  
Moisture  
Dew Point -8 °F    
Average Humidity 74    
Maximum Humidity 91    
Minimum Humidity 57    
Precipitation  
Precipitation 0.00 in - 1.14 in (1979)
Month to date precipitation 2.02  
Year to date precipitation 2.02  
Sea Level Pressure  
Sea Level Pressure 29.99 in    
Wind  
Wind Speed 5 mph (NNW)    
Max Wind Speed 9 mph    
Max Gust Speed -    
Visibility 10 miles    
Events      
T = Trace of Precipitation, MM = Missing Value Source: NWS Daily Summary

Daily Weather History Graph

Daily Weather History Graph

Search for Another Location

Airport:

Trip Planner

Search our weather history database for the weather conditions in past years. The results will help you decide how hot, cold, wet, or windy it might be!

Date:

Astronomy

Jan. 21, 2014 Rise Set
Actual Time 7:18 AM EST 4:48 PM EST
Civil Twilight 6:46 AM EST 5:19 PM EST
Nautical Twilight 6:11 AM EST 5:54 PM EST
Astronomical Twilight 5:37 AM EST 6:28 PM EST
Moon 10:30 PM EST (1/21) 9:35 AM EST (1/21)
Length of Visible Light 10h 33m
Length of Day
9h 30m
Waning Gibbous, 75% of the Moon is Illuminated
Jan 21
Waning Gibbous
Jan 24
Last Quarter
Jan 30
New
Feb 6
First Quarter
Feb 14
Full

Hourly Weather History & Observations

Time (EST) Temp. Windchill Dew Point Humidity Pressure Visibility Wind Dir Wind Speed Gust Speed Precip Events Conditions
12:15 AM 3.2 °F -6.2 °F -4.0 °F 72% 29.90 in 10.0 mi North 4.6 mph - N/A   Mostly Cloudy
12:35 AM 1.4 °F -6.2 °F -5.8 °F 72% 29.91 in 10.0 mi NNW 3.5 mph - N/A   Scattered Clouds
12:55 AM 1.4 °F -9.9 °F -2.2 °F 85% 29.92 in 10.0 mi NNW 5.8 mph - N/A   Partly Cloudy
1:15 AM 1.4 °F -8.3 °F -4.0 °F 78% 29.93 in 10.0 mi NNW 4.6 mph - N/A   Clear
1:35 AM 1.4 °F -8.3 °F -5.8 °F 72% 29.94 in 10.0 mi NW 4.6 mph - N/A   Clear
1:55 AM 1.4 °F -6.2 °F -4.0 °F 78% 29.95 in 10.0 mi NW 3.5 mph - N/A   Clear
2:15 AM 1.4 °F -6.2 °F -7.6 °F 66% 29.96 in 10.0 mi NW 3.5 mph - N/A   Clear
2:35 AM 1.4 °F -8.3 °F -7.6 °F 66% 29.96 in 10.0 mi NW 4.6 mph - N/A   Clear
2:55 AM -0.4 °F -12.0 °F -4.0 °F 85% 29.96 in 10.0 mi NW 5.8 mph - N/A   Clear
3:15 AM -0.4 °F - -4.0 °F 85% 29.97 in 10.0 mi Calm Calm - N/A   Clear
3:35 AM -0.4 °F - -5.8 °F 78% 29.97 in 10.0 mi Calm Calm - N/A   Clear
3:55 AM -0.4 °F - -5.8 °F 78% 29.97 in 10.0 mi Calm Calm - N/A   Clear
4:15 AM -0.4 °F - -7.6 °F 72% 29.98 in 10.0 mi Calm Calm - N/A   Clear
4:35 AM -2.2 °F - -4.0 °F 92% 29.98 in 10.0 mi Calm Calm - N/A   Clear
4:55 AM -2.2 °F -14.2 °F -13.0 °F 60% 29.97 in 10.0 mi NNW 5.8 mph - N/A   Clear
5:15 AM -2.2 °F -10.4 °F -4.0 °F 92% 29.96 in 10.0 mi NNW 3.5 mph - N/A   Clear
5:35 AM -2.2 °F -10.4 °F -4.0 °F 92% 29.98 in 10.0 mi NW 3.5 mph - N/A   Clear
5:55 AM -2.2 °F - -9.4 °F 71% 29.99 in 10.0 mi Calm Calm - N/A   Clear
6:15 AM -2.2 °F - -4.0 °F 92% 29.99 in 10.0 mi Calm Calm - N/A   Clear
6:35 AM -2.2 °F -10.4 °F -5.8 °F 85% 29.99 in 10.0 mi North 3.5 mph - N/A   Clear
6:55 AM -2.2 °F - -9.4 °F 71% 30.01 in 10.0 mi Calm Calm - N/A   Clear
7:15 AM -2.2 °F - -4.0 °F 92% 30.00 in 10.0 mi Calm Calm - N/A   Clear
7:35 AM -2.2 °F - -4.0 °F 92% 30.00 in 10.0 mi Calm Calm - N/A   Clear
7:55 AM -2.2 °F - -7.6 °F 78% 30.01 in 10.0 mi Calm Calm - N/A   Clear
8:15 AM -2.2 °F -10.4 °F -9.4 °F 71% 30.01 in 10.0 mi North 3.5 mph - N/A   Clear
8:35 AM -2.2 °F -10.4 °F -4.0 °F 92% 30.01 in 10.0 mi North 3.5 mph - N/A   Clear
8:55 AM -2.2 °F -10.4 °F -4.0 °F 92% 30.03 in 10.0 mi North 3.5 mph - N/A   Clear
9:15 AM -2.2 °F -10.4 °F -9.4 °F 71% 30.03 in 10.0 mi North 3.5 mph - N/A   Clear
9:35 AM -2.2 °F -15.6 °F -5.8 °F 85% 30.04 in 10.0 mi North 6.9 mph - N/A   Clear
9:55 AM -2.2 °F -14.2 °F -9.4 °F 71% 30.04 in 10.0 mi North 5.8 mph - N/A   Clear
10:15 AM -2.2 °F -10.4 °F -7.6 °F 78% 30.05 in 10.0 mi NNE 3.5 mph - N/A   Clear
10:35 AM -0.4 °F -8.3 °F -9.4 °F 66% 30.05 in 10.0 mi NNE 3.5 mph - N/A   Clear
10:55 AM -0.4 °F -10.4 °F -5.8 °F 78% 30.05 in 10.0 mi NNW 4.6 mph - N/A   Clear
11:15 AM -0.4 °F -14.7 °F -9.4 °F 66% 30.04 in 10.0 mi NNW 8.1 mph - N/A   Partly Cloudy
11:35 AM 1.4 °F -12.5 °F -9.4 °F 61% 30.04 in 10.0 mi NNW 8.1 mph - N/A   Mostly Cloudy
11:55 AM 1.4 °F -13.5 °F -9.4 °F 61% 30.04 in 10.0 mi NW 9.2 mph - N/A   Scattered Clouds
12:15 PM 1.4 °F -13.5 °F -7.6 °F 66% 30.03 in 10.0 mi North 9.2 mph - N/A   Scattered Clouds
12:35 PM 1.4 °F -9.9 °F -5.8 °F 72% 30.03 in 10.0 mi NNW 5.8 mph - N/A   Partly Cloudy
12:55 PM 1.4 °F -11.3 °F -9.4 °F 61% 30.03 in 10.0 mi NNE 6.9 mph - N/A   Clear
1:15 PM 1.4 °F -11.3 °F -9.4 °F 61% 30.02 in 10.0 mi North 6.9 mph - N/A   Clear
1:35 PM 1.4 °F -11.3 °F -7.6 °F 66% 30.01 in 10.0 mi North 6.9 mph - N/A   Partly Cloudy
1:55 PM 1.4 °F -13.5 °F -9.4 °F 61% 30.01 in 10.0 mi North 9.2 mph - N/A   Scattered Clouds
2:15 PM 1.4 °F -12.5 °F -7.6 °F 66% 30.01 in 10.0 mi North 8.1 mph - N/A   Mostly Cloudy
2:35 PM 1.4 °F -11.3 °F -9.4 °F 61% 30.00 in 10.0 mi North 6.9 mph - N/A   Scattered Clouds
2:55 PM 1.4 °F -13.5 °F -7.6 °F 66% 30.00 in 10.0 mi North 9.2 mph - N/A   Mostly Cloudy
3:15 PM 1.4 °F -12.5 °F -7.6 °F 66% 29.99 in 10.0 mi North 8.1 mph - N/A   Mostly Cloudy
3:35 PM 1.4 °F -12.5 °F -7.6 °F 66% 29.98 in 10.0 mi North 8.1 mph - N/A   Scattered Clouds
3:55 PM 1.4 °F -9.9 °F -9.4 °F 61% 29.97 in 10.0 mi NNW 5.8 mph - N/A   Mostly Cloudy
4:15 PM 1.4 °F -11.3 °F -9.4 °F 61% 29.96 in 10.0 mi NNW 6.9 mph - N/A   Mostly Cloudy
4:35 PM 1.4 °F -8.3 °F -7.6 °F 66% 29.97 in 10.0 mi NNW 4.6 mph - N/A   Mostly Cloudy
4:55 PM 1.4 °F -12.5 °F -7.6 °F 66% 29.97 in 10.0 mi North 8.1 mph - N/A   Overcast
5:15 PM 1.4 °F -9.9 °F -9.4 °F 61% 29.97 in 10.0 mi NNW 5.8 mph - N/A   Overcast
5:35 PM 1.4 °F -11.3 °F -9.4 °F 61% 29.98 in 10.0 mi NNW 6.9 mph - N/A   Mostly Cloudy
5:55 PM 1.4 °F -8.3 °F -7.6 °F 66% 29.99 in 10.0 mi North 4.6 mph - N/A   Mostly Cloudy
6:15 PM 1.4 °F -6.2 °F -9.4 °F 61% 30.00 in 10.0 mi North 3.5 mph - N/A   Scattered Clouds
6:35 PM 1.4 °F -6.2 °F -7.6 °F 66% 30.00 in 10.0 mi NNW 3.5 mph - N/A   Scattered Clouds
6:55 PM 1.4 °F -11.3 °F -11.2 °F 56% 30.00 in 10.0 mi North 6.9 mph - N/A   Mostly Cloudy
7:15 PM 1.4 °F -11.3 °F -7.6 °F 66% 30.00 in 10.0 mi North 6.9 mph - N/A   Overcast
7:35 PM -0.4 °F -14.7 °F -7.6 °F 72% 30.00 in 10.0 mi NW 8.1 mph - N/A   Mostly Cloudy
7:55 PM -0.4 °F -14.7 °F -9.4 °F 66% 30.00 in 10.0 mi NW 8.1 mph - N/A   Mostly Cloudy
8:15 PM -0.4 °F -13.4 °F -9.4 °F 66% 30.00 in 10.0 mi NW 6.9 mph - N/A   Mostly Cloudy
8:35 PM -0.4 °F -12.0 °F -7.6 °F 72% 30.01 in 10.0 mi NW 5.8 mph - N/A   Mostly Cloudy
8:55 PM -2.2 °F -14.2 °F -9.4 °F 71% 30.01 in 10.0 mi NW 5.8 mph - N/A   Mostly Cloudy
9:15 PM -2.2 °F -14.2 °F -11.2 °F 66% 30.01 in 10.0 mi NNW 5.8 mph - N/A   Scattered Clouds
9:35 PM -2.2 °F -16.8 °F -9.4 °F 71% 30.01 in 10.0 mi NW 8.1 mph - N/A   Scattered Clouds
9:55 PM -2.2 °F -15.6 °F -5.8 °F 85% 30.00 in 10.0 mi NNW 6.9 mph - N/A   Scattered Clouds
10:15 PM -4.0 °F -19.0 °F -13.0 °F 65% 30.01 in 10.0 mi NW 8.1 mph - N/A   Clear
10:35 PM -5.8 °F -19.9 °F -11.2 °F 77% 30.00 in 10.0 mi NW 6.9 mph - N/A   Scattered Clouds
10:55 PM -5.8 °F -18.4 °F -11.2 °F 77% 29.99 in 10.0 mi NW 5.8 mph - N/A   Partly Cloudy
11:15 PM -5.8 °F -19.9 °F -13.0 °F 71% 29.98 in 10.0 mi NW 6.9 mph - N/A   Scattered Clouds
11:35 PM -7.6 °F -16.5 °F -11.2 °F 84% 29.98 in 10.0 mi NNW 3.5 mph - N/A   Partly Cloudy
11:55 PM -7.6 °F -18.8 °F -14.8 °F 71% 29.96 in 10.0 mi NNW 4.6 mph - N/A   Clear